TimeGMT,TemperatureF,Dew PointF,Humidity,Sea Level PressureIn,VisibilityMPH,Wind Direction,Wind SpeedMPH,Gust SpeedMPH,PrecipitationIn,Events,Conditions,WindDirDegrees,DateUTC
12:50 AM,33.8,33.8,100,29.98,5.6,East,6.9,-,N/A,,Unknown,80,2012-12-01 00:50:00
1:50 AM,35.6,35.6,100,29.98,6.2,NE,6.9,-,N/A,,Unknown,50,2012-12-01 01:50:00
2:50 AM,35,34,93,30.01,16,NNE,8.1,,,,Partly Cloudy,30,2012-12-01 02:50:00
2:50 AM,35.6,33.8,93,29.98,6.2,NNE,8.1,-,N/A,,Unknown,30,2012-12-01 02:50:00
3:50 AM,33.8,33.8,100,30.01,6.2,NNE,9.2,-,N/A,,Unknown,30,2012-12-01 03:50:00
4:50 AM,35.6,33.8,93,30.01,6.2,NE,6.9,-,N/A,,Partly Cloudy,50,2012-12-01 04:50:00
5:50 AM,34,33,92,30.04,16,North,6.9,,,,Scattered Clouds,0,2012-12-01 05:50:00
5:50 AM,33.8,32.0,93,30.01,6.2,North,6.9,-,N/A,,Partly Cloudy,360,2012-12-01 05:50:00
6:50 AM,39.2,37.4,93,30.04,6.2,NW,4.6,-,N/A,,Partly Cloudy,320,2012-12-01 06:50:00
7:50 AM,39.2,37.4,93,30.04,6.2,NNW,5.8,-,N/A,,Partly Cloudy,330,2012-12-01 07:50:00
8:50 AM,38,36,92,30.08,12,North,6.9,,,,Scattered Clouds,0,2012-12-01 08:50:00
8:50 AM,37.4,37.4,100,30.06,6.2,North,6.9,-,N/A,,Partly Cloudy,360,2012-12-01 08:50:00
9:50 AM,44.6,41.0,87,30.06,6.2,NW,4.6,-,N/A,,Scattered Clouds,310,2012-12-01 09:50:00
10:50 AM,44.6,42.8,93,30.06,6.2,NNW,9.2,-,N/A,,Scattered Clouds,340,2012-12-01 10:50:00
11:50 AM,47,43,79,30.10,12,NNW,15.0,,,Rain,Light Rain Showers,330,2012-12-01 11:50:00
11:50 AM,46.4,42.8,87,30.06,6.2,NNW,15.0,-,N/A,,Scattered Clouds,330,2012-12-01 11:50:00
12:50 PM,46.4,41.0,81,30.09,6.2,NNW,11.5,-,N/A,,Scattered Clouds,330,2012-12-01 12:50:00
1:50 PM,48.2,42.8,82,30.06,6.2,NW,9.2,-,N/A,,Mostly Cloudy,320,2012-12-01 13:50:00
2:50 PM,47,41,72,30.09,9,NW,9.2,,,Rain,Light Rain Showers,310,2012-12-01 14:50:00
2:50 PM,46.4,41.0,81,30.06,6.2,NW,9.2,-,N/A,Rain,Light Rain Showers,310,2012-12-01 14:50:00
3:50 PM,44.6,41.0,87,30.06,6.2,WNW,10.4,-,N/A,,Scattered Clouds,300,2012-12-01 15:50:00
4:50 PM,44.6,39.2,81,30.06,6.2,NW,11.5,-,N/A,,Scattered Clouds,310,2012-12-01 16:50:00
5:50 PM,43,39,80,30.10,12,NW,12.7,,,,Mostly Cloudy,310,2012-12-01 17:50:00
5:50 PM,42.8,39.2,87,30.06,6.2,NW,12.7,-,N/A,,Scattered Clouds,310,2012-12-01 17:50:00
6:50 PM,42.8,39.2,87,30.06,6.2,NW,11.5,-,N/A,,Partly Cloudy,310,2012-12-01 18:50:00
7:50 PM,42.8,39.2,87,30.06,6.2,NW,6.9,-,N/A,,Overcast,320,2012-12-01 19:50:00
8:50 PM,42,40,89,30.10,12,NNW,6.9,,,,Mostly Cloudy,340,2012-12-01 20:50:00
8:50 PM,42.8,39.2,87,30.09,6.2,NNW,6.9,-,N/A,,Scattered Clouds,340,2012-12-01 20:50:00
9:50 PM,42.8,41.0,93,30.09,6.2,NW,4.6,-,N/A,,Mostly Cloudy,320,2012-12-01 21:50:00
10:50 PM,42.8,41.0,93,30.09,6.2,NW,6.9,-,N/A,,Overcast,320,2012-12-01 22:50:00
11:50 PM,43,41,91,30.11,12,NNW,5.8,,,,Mostly Cloudy,330,2012-12-01 23:50:00
11:50 PM,42.8,41.0,93,30.09,6.2,NNW,5.8,-,N/A,,Mostly Cloudy,330,2012-12-01 23:50:00